{"data":{"norad_id":69630,"epoch":"2026-07-08T12:20:49.290432Z","epoch_age_seconds":6422440,"freshness":"OLD","line1":"1 69630U 26128E   26189.51445938  .00013780  00000+0  15844-3 0  9991","line2":"2 69630  54.5281 204.0708 0078474  30.4860 330.0698 15.58675162  4507","mean_motion":15.58675162,"eccentricity":0.0078474,"inclination_deg":54.5281,"raan_deg":204.0708,"arg_perigee_deg":30.486,"mean_anomaly_deg":330.0698,"bstar":0.00015844,"rev_number":450,"period_min":92.386151720816,"perigee_km":338.36641004801,"apogee_km":444.61435791411,"semimajor_km":6769.6273839811,"source":"CELESTRAK","updated_at":"2026-07-09T09:01:40.759521Z"}}